Flag Weather past 2 weeks in Passaic, New Jersey, U.S.A.

Now
49 °F

Clear.


Feels Like: 46 °F
Forecast: 35 / 46 °F
Wind: 6 mph from Southwest

Location: Teterboro Airport

Current Time: Nov 25, 2014 at 11:33:43 PM

Latest Report: Nov 25, 2014 at 9:51 PM


Visibility: 10 mi

Pressure: 30.12 "Hg

Humidity: 48%

Dew point: 30 °F

Location of PassaicLocation

Historic Weather in Passaic — Graph

°F

Passaic temperature yesterday

Maximum temperature yesterday: 72 °F (at 1:51 PM)
Minimum temperature yesterday: 48 °F (at 1:02 AM)
Average temperature yesterday: 63 °F

Past Weeks' High & Low Weather Summary

 TemperatureHumidityPressure
High72 °F (Nov 24, 1:51 PM)96% (Nov 12, 7:51 AM)30.51 "Hg (Nov 12, 7:51 AM)
Low22 °F (Nov 19, 3:51 AM)26% (Nov 22, 1:51 PM)29.51 "Hg (Nov 17, 7:51 PM)
Average42 °F57%30.05 "Hg
* Reported Nov 10 9:51 PM — Nov 25 9:51 PM, Passaic, Weather by CustomWeather, © 2014

Note: Actual official high and low records may vary slightly from our data, if they occured in-between our weather recording intervals... More about our weather records

Advertising

Passaic weather history for previous 24 hours

 ConditionsComfort  
Time TempWeatherWind HumidityBarometerVisibility
9:51 PM
Nov 25
49 °FClear.6 mph48%30.12 "Hg10 mi
8:51 PM48 °FClear.6 mph50%30.11 "Hg10 mi
7:51 PM51 °FClear.6 mph42%30.08 "Hg10 mi
6:51 PM52 °FClear.8 mph40%30.05 "Hg10 mi
5:51 PM53 °FClear.9 mph38%30.03 "Hg10 mi
4:51 PM52 °FClear.7 mph41%30.01 "Hg10 mi
3:51 PM54 °FSunny.8 mph37%30.00 "Hg10 mi
2:51 PM54 °FSunny.8 mph37%29.98 "Hg10 mi
1:51 PM54 °FSunny.10 mph38%29.97 "Hg10 mi
12:51 PM54 °FSunny.13 mph37%29.98 "Hg10 mi
11:51 AM54 °FPassing clouds.10 mph35%29.98 "Hg10 mi
10:51 AM54 °FScattered clouds.9 mph37%29.99 "Hg10 mi
9:51 AM55 °FOvercast.15 mph35%29.99 "Hg10 mi
8:51 AM56 °FPartly sunny.14 mph42%29.95 "Hg10 mi
7:51 AM57 °FSunny.12 mph42%29.93 "Hg10 mi
6:51 AM59 °FPassing clouds.7 mph42%29.89 "Hg10 mi
5:51 AM61 °FClear.8 mph50%29.86 "Hg10 mi
4:51 AM61 °FClear.7 mph65%29.83 "Hg10 mi
3:51 AM64 °FClear.3 mph70%29.78 "Hg10 mi
2:51 AM63 °FClear.6 mph75%29.77 "Hg10 mi
1:51 AM66 °FClear.10 mph70%29.74 "Hg10 mi
12:51 AM67 °FClear.12 mph68%29.73 "Hg10 mi
11:51 PM
Nov 24
66 °FClear.12 mph70%29.72 "Hg10 mi
Weather by CustomWeather, © 2014

See weather overviewHow to use our weather pages